When you browse on this site, cookies collect data to enhance your experience and personalize the content and advertising you see.
Visit our Privacy Policy to learn more. By continuing to use the site, you agree to this use of cookies and data.

Hourly Weather Bakans

Today, 6 July, Monday

Time Temperature Precipitation Wind Pressure Humidity
00:00 +10°C° 0 mm 2 mps 743 mmHg 76%
01:00 +10°C° 0 mm 2 mps 743 mmHg 81%
02:00 +11°C° 0 mm 1 mps 743 mmHg 86%
03:00 +11°C° 0 mm 1 mps 743 mmHg 86%
04:00 +11°C° 0 mm 1 mps 743 mmHg 86%
05:00 +10°C° 0 mm 0 mps 743 mmHg 87%
06:00 +11°C° 0 mm 0 mps 744 mmHg 84%
07:00 +12°C° 0 mm 0 mps 744 mmHg 81%
08:00 +13°C° 0 mm 0 mps 744 mmHg 79%
09:00 +16°C° 0.1 mm 1 mps 744 mmHg 74%
10:00 +18°C° 0.1 mm 1 mps 744 mmHg 69%
11:00 +20°C° 0.1 mm 1 mps 744 mmHg 64%
12:00 +20°C° 0.3 mm 1 mps 744 mmHg 63%
13:00 +21°C° 0.3 mm 1 mps 744 mmHg 61%
14:00 +21°C° 0.3 mm 1 mps 744 mmHg 60%
15:00 +20°C° 0.3 mm 1 mps 744 mmHg 65%
16:00 +20°C° 0.3 mm 1 mps 743 mmHg 69%
17:00 +18°C° 0.3 mm 2 mps 743 mmHg 74%
18:00 +17°C° 0.2 mm 2 mps 744 mmHg 78%
19:00 +16°C° 0.2 mm 2 mps 744 mmHg 82%
20:00 +14°C° 0.2 mm 2 mps 744 mmHg 86%
21:00 +14°C° 0 mm 2 mps 744 mmHg 87%
22:00 +13°C° 0 mm 2 mps 744 mmHg 88%
23:00 +12°C° 0 mm 1 mps 744 mmHg 89%

Tomorrow, 7 July, Tuesday

Time Temperature Precipitation Wind Pressure Humidity
00:00 +12°C° 0 mm 1 mps 744 mmHg 88%
01:00 +11°C° 0 mm 1 mps 744 mmHg 88%
02:00 +11°C° 0 mm 1 mps 744 mmHg 88%
03:00 +11°C° 0 mm 1 mps 744 mmHg 86%
04:00 +11°C° 0 mm 1 mps 744 mmHg 85%
05:00 +11°C° 0 mm 1 mps 744 mmHg 83%
06:00 +13°C° 0 mm 1 mps 744 mmHg 75%
07:00 +16°C° 0 mm 2 mps 744 mmHg 67%
08:00 +18°C° 0 mm 2 mps 745 mmHg 59%
09:00 +19°C° 0 mm 2 mps 745 mmHg 55%
10:00 +20°C° 0 mm 2 mps 745 mmHg 51%
11:00 +21°C° 0 mm 2 mps 745 mmHg 46%
12:00 +23°C° 0 mm 2 mps 744 mmHg 45%
13:00 +23°C° 0 mm 2 mps 744 mmHg 43%
14:00 +24°C° 0 mm 2 mps 744 mmHg 41%
15:00 +23°C° 0 mm 2 mps 744 mmHg 44%
16:00 +23°C° 0 mm 2 mps 744 mmHg 47%
17:00 +21°C° 0 mm 2 mps 744 mmHg 50%
18:00 +19°C° 0 mm 2 mps 744 mmHg 57%
19:00 +17°C° 0 mm 3 mps 744 mmHg 63%
20:00 +14°C° 0 mm 3 mps 745 mmHg 70%
21:00 +14°C° 0 mm 2 mps 744 mmHg 70%
22:00 +13°C° 0 mm 2 mps 744 mmHg 70%
23:00 +12°C° 0 mm 2 mps 744 mmHg 70%

Day after tomorrow, 8 July, Wednesday

Time Temperature Precipitation Wind Pressure Humidity
00:00 +12°C° 0 mm 1 mps 744 mmHg 72%
01:00 +11°C° 0 mm 1 mps 744 mmHg 73%
02:00 +11°C° 0 mm 1 mps 744 mmHg 74%
03:00 +11°C° 0 mm 1 mps 744 mmHg 75%
04:00 +12°C° 0 mm 1 mps 744 mmHg 77%
05:00 +12°C° 0 mm 1 mps 744 mmHg 78%
06:00 +14°C° 0 mm 2 mps 745 mmHg 71%
07:00 +17°C° 0 mm 2 mps 745 mmHg 64%
08:00 +19°C° 0 mm 3 mps 745 mmHg 58%
09:00 +20°C° 0 mm 3 mps 745 mmHg 55%
10:00 +21°C° 0 mm 4 mps 745 mmHg 53%
11:00 +22°C° 0 mm 4 mps 744 mmHg 51%
12:00 +22°C° 0 mm 5 mps 744 mmHg 50%
13:00 +23°C° 0 mm 5 mps 744 mmHg 49%
14:00 +23°C° 0 mm 6 mps 744 mmHg 48%
15:00 +22°C° 0 mm 6 mps 743 mmHg 50%
16:00 +21°C° 0 mm 6 mps 743 mmHg 52%
17:00 +20°C° 0 mm 6 mps 743 mmHg 54%
18:00 +17°C° 0 mm 5 mps 743 mmHg 61%
19:00 +15°C° 0 mm 5 mps 743 mmHg 68%
20:00 +13°C° 0 mm 4 mps 743 mmHg 76%
21:00 +13°C° 0 mm 4 mps 743 mmHg 76%
22:00 +12°C° 0 mm 5 mps 743 mmHg 76%
23:00 +12°C° 0 mm 5 mps 743 mmHg 76%

9 July, Thursday

Time Temperature Precipitation Wind Pressure Humidity
00:00 +10°C° 0.2 mm 5 mps 743 mmHg 80%
01:00 +10°C° 0.2 mm 5 mps 743 mmHg 83%
02:00 +10°C° 0.2 mm 5 mps 743 mmHg 86%
03:00 +9°C° 1 mm 5 mps 743 mmHg 88%
04:00 +9°C° 1 mm 6 mps 742 mmHg 91%
05:00 +8°C° 1 mm 6 mps 742 mmHg 93%
06:00 +9°C° 0.1 mm 6 mps 742 mmHg 93%
07:00 +9°C° 0.1 mm 6 mps 743 mmHg 93%
08:00 +10°C° 0.1 mm 6 mps 743 mmHg 92%
09:00 +11°C° 0 mm 6 mps 743 mmHg 90%
10:00 +13°C° 0 mm 6 mps 742 mmHg 88%
11:00 +14°C° 0 mm 6 mps 742 mmHg 86%
12:00 +15°C° 0 mm 6 mps 742 mmHg 82%
13:00 +16°C° 0 mm 6 mps 742 mmHg 78%
14:00 +19°C° 0 mm 6 mps 742 mmHg 75%
15:00 +19°C° 0 mm 6 mps 742 mmHg 76%
16:00 +19°C° 0 mm 5 mps 742 mmHg 76%
17:00 +19°C° 0 mm 4 mps 742 mmHg 77%
18:00 +18°C° 0 mm 4 mps 742 mmHg 82%
19:00 +17°C° 0 mm 4 mps 742 mmHg 88%
20:00 +15°C° 0 mm 4 mps 742 mmHg 93%
21:00 +14°C° 0 mm 4 mps 742 mmHg 93%
22:00 +14°C° 0 mm 3 mps 742 mmHg 94%
23:00 +14°C° 0 mm 3 mps 742 mmHg 95%

10 July, Friday

Time Temperature Precipitation Wind Pressure Humidity
00:00 +14°C° 0 mm 3 mps 742 mmHg 96%
01:00 +14°C° 0 mm 2 mps 742 mmHg 97%
02:00 +14°C° 0 mm 2 mps 742 mmHg 98%
03:00 +14°C° 0 mm 2 mps 742 mmHg 97%
04:00 +15°C° 0 mm 2 mps 742 mmHg 97%
05:00 +16°C° 0 mm 2 mps 742 mmHg 96%
06:00 +16°C° 0.2 mm 2 mps 742 mmHg 96%
07:00 +17°C° 0.2 mm 2 mps 742 mmHg 95%
08:00 +18°C° 0.2 mm 1 mps 742 mmHg 94%
09:00 +20°C° 0 mm 2 mps 742 mmHg 83%
10:00 +23°C° 0 mm 2 mps 743 mmHg 72%
11:00 +25°C° 0 mm 3 mps 743 mmHg 61%
12:00 +25°C° 0.1 mm 3 mps 742 mmHg 62%
13:00 +26°C° 0.1 mm 3 mps 742 mmHg 62%
14:00 +26°C° 0.1 mm 3 mps 742 mmHg 63%
15:00 +26°C° 0.3 mm 3 mps 742 mmHg 67%
16:00 +25°C° 0.3 mm 3 mps 742 mmHg 72%
17:00 +25°C° 0.3 mm 3 mps 742 mmHg 76%
18:00 +22°C° 0.2 mm 3 mps 742 mmHg 82%
19:00 +21°C° 0.2 mm 2 mps 742 mmHg 88%
20:00 +19°C° 0.2 mm 2 mps 742 mmHg 94%
21:00 +18°C° 0 mm 2 mps 742 mmHg 95%
22:00 +18°C° 0 mm 2 mps 742 mmHg 96%
23:00 +17°C° 0 mm 2 mps 742 mmHg 97%

11 July, Saturday

Time Temperature Precipitation Wind Pressure Humidity
00:00 +17°C° 0 mm 2 mps 741 mmHg 97%
01:00 +17°C° 0 mm 2 mps 741 mmHg 98%
02:00 +16°C° 0 mm 3 mps 741 mmHg 98%
03:00 +17°C° 0 mm 3 mps 740 mmHg 98%
04:00 +17°C° 0 mm 3 mps 740 mmHg 98%
05:00 +18°C° 0 mm 4 mps 740 mmHg 98%
06:00 +19°C° 0 mm 4 mps 740 mmHg 95%
07:00 +20°C° 0 mm 4 mps 740 mmHg 93%
08:00 +22°C° 0 mm 5 mps 740 mmHg 91%
09:00 +23°C° 0.1 mm 5 mps 740 mmHg 86%
10:00 +25°C° 0.1 mm 5 mps 740 mmHg 82%
11:00 +26°C° 0.1 mm 6 mps 739 mmHg 78%
12:00 +26°C° 0.5 mm 6 mps 739 mmHg 77%
13:00 +26°C° 0.5 mm 7 mps 739 mmHg 77%
14:00 +27°C° 0.5 mm 7 mps 739 mmHg 76%
15:00 +27°C° 0.2 mm 7 mps 738 mmHg 76%
16:00 +27°C° 0.2 mm 6 mps 738 mmHg 75%
17:00 +26°C° 0.2 mm 6 mps 738 mmHg 75%
18:00 +24°C° 0.1 mm 6 mps 737 mmHg 80%
19:00 +22°C° 0.1 mm 5 mps 737 mmHg 86%
20:00 +21°C° 0.1 mm 5 mps 737 mmHg 91%
21:00 +20°C° 1.4 mm 5 mps 736 mmHg 93%
22:00 +20°C° 1.4 mm 5 mps 735 mmHg 95%
23:00 +20°C° 1.4 mm 5 mps 735 mmHg 97%
Show more